SL-16 DEB, 24284

Orbit data source: Space-Track

SL-16 DEB, 24284 is space debris in LEO originally from a launch on Tue, 31 Oct 1995 UTC launched from the Tyuratam Missile And Space Complex (TTMTR). Debris objects in space refer to the collection of defunct objects orbiting the Earth. Examples of debris include non-operational satellites, rocket bodies, and fragments generated from explosions, collisions, or faulty payload assembly.

Loading next visibility...
Identifier
24284, 1995-058G
Orbit
LEO
Country
Flag of CISCIS
Related business
Manufacturer
Unknown
Mission
Spacecraft
Bus & Motor
Unknown
Mass
Unknown
Launch date (UTC)
1995-10-31 (31 years ago)
Launch vehicle
Unknown
Launch site
Tyuratam Missile And Space Complex (TTMTR)
Object type
Payload
Rocket body
Debris
Shape & HBR
Unknown shape, 0.2 m
Radar Cross Section
Medium (>0.1 m² and <1 m²)

Expand to show TLE details & history
Last TLE update: 2 days ago

TLE from 2 days ago
0 SL-16 DEB
1 24284U 95058G   26171.36376905  .00000264  00000-0  14583-3 0  9999
2 24284  70.8628  34.3789 0010848 134.7390 225.4619 14.20559597584198
Epoch: 2026-06-20T08:43Z
TLE epoch observation values (Epoch: 2026-06-20T08:43:49.645Z)
Latitude
-0.00009°
Longitude
-5.15745°
Altitude
831.343 km
Speed
7.435 km/s
True Right ascension
02h 17m 30s
True Declination
0° 00' 00"
Sunlit
Object was in daylight at epoch
Visualization orbit readout
Latitude
Unknown
Longitude
Unknown
Altitude
Unknown
Speed
Unknown
Apparent Right ascension
Unknown
Apparent Declination
Unknown
Sunlit
N/A
Visualization observer readout
Local Sidereal Time
00:51:28
Azimuth
Unknown
Elevation
Unknown
Doppler factor
Unknown
Orbital elements
Apogee altitude
829.204 km
Perigee altitude
813.584 km
Semi-major axis
7,199.531 km
Eccentricity
0.00108
Inclination
70.8628°
RAAN
34.3789°
Arg. of periapsis
134.739°
True anomaly
225.37338°
Mean anomaly
225.4619°
Eccentric anomaly
225.41763°
Mean motion
3.55293 °/min
Orbital period
101.32 mins
BSTAR
0.00014583
Loading maneuver chart data...
Computing Atmospheric mass density...
Loading historical data...
Loading historical data...
Loading historical data...
Loading historical data...
Loading historical data...
Loading historical data...
Loading historical data...

Documentation

Showing up to 5 results
|